Mattoon, IL

7:08 PM CDT on August 24, 2019 (GMT -0500)
Coles County Memorial

Weather History for KMTO - June, 2019

Change the Weather History Date:

Sunday, June 9, 2019

  Actual Average Record
Temperature  
Mean Temperature 75 °F 70 °F  
Max Temperature 83 °F 81 °F 95 °F (1963)
Min Temperature 66 °F 60 °F 45 °F (1977)
Degree Days  
Heating Degree Days 0 1  
Month to date heating degree days 0 11  
Since 1 June heating degree days 0 11  
Since 1 July heating degree days 5517 5401  
Cooling Degree Days 10 6  
Month to date cooling degree days 74 47  
Year to date cooling degree days 199 135  
Since 1 June cooling degree days 74 47  
Growing Degree Days 24 (Base 50)    
Moisture  
Dew Point 65 °F    
Average Humidity 73    
Maximum Humidity 87    
Minimum Humidity 58    
Precipitation  
Precipitation T in 0.16 in 1.39 in (1981)
Month to date precipitation 0.01 1.54  
Year to date precipitation 11.64 15.89  
Sea Level Pressure  
Sea Level Pressure 29.89 in    
Wind  
Wind Speed 6 mph (NE)    
Max Wind Speed 14 mph    
Max Gust Speed 20 mph    
Visibility 9 miles    
Events Rain    
T = Trace of Precipitation, MM = Missing Value Source: NWS Daily Summary

Daily Weather History Graph

Daily Weather History Graph

Search for Another Location

Airport or City:

Astronomy

Jun. 09, 2019 Rise Set
Actual Time 5:25 AM CDT 8:19 PM CDT
Civil Twilight 4:53 AM CDT 8:51 PM CDT
Nautical Twilight 4:12 AM CDT 9:32 PM CDT
Astronomical Twilight 3:26 AM CDT 10:19 PM CDT
Moon 12:03 PM CDT (6/9) 1:00 AM CDT (6/9)
Length of Visible Light 15h 57m
Length of Day
14h 53m
Waxing Crescent, 44% of the Moon is Illuminated
Jun 9
Waxing Crescent
Jun 10
First Quarter
Jun 17
Full
Jun 25
Last Quarter
Jul 2
New

Hourly Weather History & Observations

Time (CDT) Temp. Heat Index Dew Point Humidity Pressure Visibility Wind Dir Wind Speed Gust Speed Precip Events Conditions
12:37 AM 71.1 °F - 64.0 °F 78% 29.87 in 10.0 mi ENE 5.8 mph - N/A   Mostly Cloudy
12:53 AM 71.1 °F - 64.0 °F 78% 29.85 in 10.0 mi ENE 6.9 mph - N/A   Overcast
1:12 AM 70.0 °F - 64.0 °F 81% 29.87 in 10.0 mi East 8.1 mph - N/A   Overcast
1:53 AM 69.1 °F - 63.0 °F 81% 29.85 in 10.0 mi ENE 4.6 mph - N/A   Partly Cloudy
2:53 AM 68.0 °F - 63.0 °F 84% 29.84 in 10.0 mi Calm Calm - N/A   Mostly Cloudy
3:53 AM 66.9 °F - 63.0 °F 87% 29.84 in 10.0 mi NE 4.6 mph - N/A   Overcast
4:53 AM 66.9 °F - 63.0 °F 87% 29.85 in 9.0 mi NE 4.6 mph - N/A   Mostly Cloudy
5:11 AM 66.9 °F - 63.0 °F 87% 29.87 in 8.0 mi NNE 3.5 mph - N/A   Mostly Cloudy
5:53 AM 66.9 °F - 63.0 °F 87% 29.86 in 7.0 mi Calm Calm - N/A   Overcast
6:29 AM 66.9 °F - 63.0 °F 87% 29.89 in 7.0 mi NNE 3.5 mph - N/A   Scattered Clouds
6:53 AM 68.0 °F - 64.0 °F 87% 29.88 in 7.0 mi NNE 4.6 mph - N/A   Mostly Cloudy
7:38 AM 70.0 °F - 64.9 °F 84% 29.91 in 9.0 mi North 3.5 mph - N/A   Overcast
7:53 AM 70.0 °F - 64.9 °F 84% 29.89 in 9.0 mi NE 3.5 mph - N/A   Overcast
8:53 AM 71.1 °F - 64.9 °F 81% 29.90 in 10.0 mi NNE 3.5 mph - N/A   Overcast
9:14 AM 70.0 °F - 64.9 °F 84% 29.91 in 7.0 mi NE 5.8 mph - 0.00 in Rain Light Rain
9:42 AM 70.0 °F - 66.0 °F 87% 29.91 in 8.0 mi NE 5.8 mph - 0.00 in   Overcast
9:53 AM 71.1 °F - 66.0 °F 84% 29.89 in 8.0 mi NE 6.9 mph - 0.00 in   Mostly Cloudy
10:05 AM 71.1 °F - 66.9 °F 87% 29.90 in 10.0 mi ENE 8.1 mph - N/A   Mostly Cloudy
10:20 AM 71.1 °F - 66.9 °F 87% 29.90 in 9.0 mi ENE 6.9 mph - N/A   Mostly Cloudy
10:53 AM 72.0 °F - 66.9 °F 84% 29.90 in 10.0 mi ENE 4.6 mph - N/A   Overcast
11:34 AM 75.0 °F - 68.0 °F 79% 29.91 in 10.0 mi ENE 9.2 mph - N/A   Overcast
11:46 AM 75.0 °F - 66.9 °F 76% 29.91 in 10.0 mi NE 6.9 mph - N/A   Mostly Cloudy
11:53 AM 75.9 °F - 68.0 °F 76% 29.89 in 10.0 mi East 5.8 mph - N/A   Mostly Cloudy
12:03 PM 75.0 °F - 66.9 °F 76% 29.91 in 10.0 mi ENE 3.5 mph - N/A   Mostly Cloudy
12:26 PM 78.1 °F - 66.9 °F 68% 29.90 in 10.0 mi NNE 8.1 mph - N/A   Overcast
12:51 PM 78.8 °F - 66.2 °F 65% 29.90 in 10.0 mi NNE 10.4 mph 17.3 mph N/A   Overcast
12:53 PM 79.0 °F - 66.9 °F 66% 29.88 in 10.0 mi NNE 11.5 mph 17.3 mph N/A   Overcast
1:39 PM 80.1 °F 82.1 °F 66.0 °F 62% 29.90 in 10.0 mi NNE 11.5 mph - N/A   Mostly Cloudy
1:53 PM 80.1 °F 82.1 °F 66.0 °F 62% 29.88 in 10.0 mi NE 9.2 mph - N/A   Mostly Cloudy
2:53 PM 82.0 °F 84.5 °F 66.9 °F 60% 29.87 in 10.0 mi ENE 8.1 mph - N/A   Mostly Cloudy
3:53 PM 80.1 °F 82.3 °F 66.9 °F 64% 29.88 in 10.0 mi ENE 6.9 mph - N/A   Overcast
4:53 PM 82.9 °F 85.4 °F 66.9 °F 58% 29.88 in 10.0 mi NE 8.1 mph - N/A   Mostly Cloudy
5:53 PM 81.0 °F 82.7 °F 64.9 °F 58% 29.88 in 10.0 mi North 10.4 mph - N/A   Overcast
6:53 PM 81.0 °F 82.7 °F 64.9 °F 58% 29.88 in 10.0 mi North 11.5 mph - N/A   Overcast
7:53 PM 79.0 °F - 64.0 °F 60% 29.89 in 10.0 mi North 8.1 mph - N/A   Partly Cloudy
8:53 PM 75.0 °F - 63.0 °F 66% 29.91 in 10.0 mi North 6.9 mph - N/A   Clear
9:53 PM 73.0 °F - 63.0 °F 71% 29.92 in 10.0 mi Calm Calm - N/A   Clear
10:53 PM 70.0 °F - 63.0 °F 78% 29.92 in 10.0 mi Calm Calm - N/A   Clear
11:53 PM 68.0 °F - 63.0 °F 84% 29.93 in 10.0 mi West 3.5 mph - N/A   Clear